Tracking 19817 objects as of 19-Aug-2019
HD Live streaming from Space Station
objects crossing your sky now

OPS 0757 (TACSAT)

Track OPS 0757 (TACSAT) now!
OPS 0757 (TACSAT) is classified as:


NORAD ID: 3691
Int'l Code: 1969-013A
Perigee: 35,667.4 km
Apogee: 35,819.3 km
Inclination: 3.4 °
Period: 1,433.5 minutes
Semi major axis: 42114 km
RCS: 1 m2 (large)
Launch date: February 9, 1969
Source: United States (US)
Launch site: AIR FORCE EASTERN TEST RANGE (AFETR)
aabbcc
Your satellite tracking list
Your tracking list is empty




NASA's NSSDC Master Catalog

Two Line Element Set (TLE):
1  3691U 69013A   19230.91981654 -.00000131 +00000-0 +00000-0 0  9992
2  3691 003.3586 295.3494 0018041 270.8930 166.2903 01.00451769089068
Source of the keplerian elements: AFSPC